Location: Treviso
(45.6669°N, 12.2430°E)
Time: 07:48:50
(UTC+01:00)

ISS - Pass Details

Date: 17 January 2018
Orbit: 402 x 407 km, 51.6° (Epoch: 21 January)

Event Time Altitude Azimuth Distance (km) Brightness Sun altitude
Exits shadow 05:19:39 11° 159° (SSE) 1,403 -0.8 -25.2°
Drops below altitude 10° 05:19:48 10° 158° (SSE) 1,458 -0.7 -25.2°
Sets 05:22:02 0° 147° (SSE) 2,314 0.5 -24.8°
